When you browse on this site, cookies collect data to enhance your experience and personalize the content and advertising you see.
Visit our Privacy Policy to learn more. By continuing to use the site, you agree to this use of cookies and data.
  • In Czech Republic
  • List of Countries
  • For 7 days
  • Water Temperature
  • Satellite Maps
  • Weather Map
  • Weather Widgets
  • user-avatar
    Login

    Hourly Weather Mishawaka

    Today, 26 April, Friday

    Time Temperature Precipitation Wind Pressure Humidity
    00:00 +8°C° 0 mm 7 mps 731 mmHg 83%
    01:00 +8°C° 0.1 mm 7 mps 731 mmHg 84%
    02:00 +7°C° 0.1 mm 8 mps 732 mmHg 86%
    03:00 +7°C° 0.1 mm 8 mps 732 mmHg 87%
    04:00 +7°C° 0.2 mm 8 mps 732 mmHg 86%
    05:00 +6°C° 0.2 mm 8 mps 733 mmHg 85%
    06:00 +6°C° 0.2 mm 8 mps 733 mmHg 84%
    07:00 +7°C° 0 mm 8 mps 734 mmHg 81%
    08:00 +9°C° 0 mm 8 mps 734 mmHg 78%
    09:00 +10°C° 0 mm 8 mps 734 mmHg 75%
    10:00 +11°C° 0 mm 9 mps 735 mmHg 67%
    11:00 +11°C° 0 mm 10 mps 735 mmHg 59%
    12:00 +11°C° 0 mm 10 mps 735 mmHg 50%
    13:00 +12°C° 0 mm 10 mps 736 mmHg 50%
    14:00 +12°C° 0 mm 10 mps 736 mmHg 50%
    15:00 +12°C° 0 mm 10 mps 737 mmHg 50%
    16:00 +11°C° 0 mm 8 mps 737 mmHg 54%
    17:00 +10°C° 0 mm 7 mps 737 mmHg 58%
    18:00 +9°C° 0 mm 5 mps 738 mmHg 62%
    19:00 +7°C° 0 mm 5 mps 738 mmHg 64%
    20:00 +6°C° 0 mm 4 mps 739 mmHg 66%
    21:00 +5°C° 0 mm 3 mps 739 mmHg 67%
    22:00 +4°C° 0 mm 3 mps 740 mmHg 69%
    23:00 +4°C° 0 mm 3 mps 740 mmHg 70%

    Tomorrow, 27 April, Saturday

    Time Temperature Precipitation Wind Pressure Humidity
    00:00 +3°C° 0 mm 3 mps 740 mmHg 72%
    01:00 +4°C° 0 mm 2 mps 740 mmHg 73%
    02:00 +3°C° 0 mm 2 mps 740 mmHg 74%
    03:00 +3°C° 0 mm 2 mps 740 mmHg 75%
    04:00 +3°C° 0 mm 2 mps 740 mmHg 71%
    05:00 +5°C° 0 mm 1 mps 741 mmHg 68%
    06:00 +5°C° 0 mm 1 mps 741 mmHg 64%
    07:00 +6°C° 0 mm 1 mps 740 mmHg 59%
    08:00 +7°C° 0 mm 1 mps 740 mmHg 54%
    09:00 +8°C° 0 mm 1 mps 740 mmHg 49%
    10:00 +7°C° 0.6 mm 1 mps 740 mmHg 54%
    11:00 +6°C° 0.6 mm 2 mps 740 mmHg 60%
    12:00 +6°C° 0.6 mm 2 mps 740 mmHg 65%
    13:00 +4°C° 1.1 mm 3 mps 739 mmHg 73%
    14:00 +3°C° 1.1 mm 4 mps 738 mmHg 81%
    15:00 +1°C° 1.1 mm 6 mps 737 mmHg 89%
    16:00 +1°C° 1.2 mm 6 mps 736 mmHg 91%
    17:00 0°C° 1.2 mm 7 mps 735 mmHg 93%
    18:00 -1°C° 1.2 mm 7 mps 734 mmHg 94%
    19:00 -1°C° 2 mm 8 mps 734 mmHg 95%
    20:00 -1°C° 2 mm 8 mps 734 mmHg 95%
    21:00 -1°C° 2 mm 8 mps 734 mmHg 95%
    22:00 -1°C° 2 mm 8 mps 735 mmHg 94%
    23:00 -3°C° 2 mm 9 mps 736 mmHg 94%

    Day after tomorrow, 28 April, Sunday

    Time Temperature Precipitation Wind Pressure Humidity
    00:00 -3°C° 2 mm 9 mps 736 mmHg 93%
    01:00 -3°C° 0 mm 7 mps 738 mmHg 92%
    02:00 -4°C° 0 mm 6 mps 739 mmHg 92%
    03:00 -3°C° 0 mm 4 mps 740 mmHg 91%
    04:00 -4°C° 0 mm 4 mps 741 mmHg 90%
    05:00 -4°C° 0 mm 3 mps 742 mmHg 88%
    06:00 -4°C° 0 mm 3 mps 743 mmHg 86%
    07:00 -2°C° 0 mm 2 mps 744 mmHg 86%
    08:00 +1°C° 0 mm 2 mps 745 mmHg 86%
    09:00 +2°C° 0 mm 2 mps 745 mmHg 85%
    10:00 +3°C° 0 mm 2 mps 746 mmHg 85%
    11:00 +3°C° 0 mm 3 mps 746 mmHg 84%
    12:00 +4°C° 0 mm 4 mps 747 mmHg 83%
    13:00 +5°C° 0 mm 4 mps 747 mmHg 81%
    14:00 +5°C° 0 mm 4 mps 746 mmHg 80%
    15:00 +6°C° 0 mm 4 mps 746 mmHg 78%
    16:00 +5°C° 0 mm 4 mps 746 mmHg 79%
    17:00 +4°C° 0 mm 4 mps 746 mmHg 81%
    18:00 +4°C° 0 mm 3 mps 746 mmHg 83%
    19:00 +3°C° 0 mm 4 mps 746 mmHg 83%
    20:00 +3°C° 0 mm 4 mps 746 mmHg 83%
    21:00 +3°C° 0 mm 4 mps 747 mmHg 84%
    22:00 +3°C° 0 mm 4 mps 747 mmHg 81%
    23:00 +2°C° 0 mm 5 mps 747 mmHg 78%

    29 April, Monday

    Time Temperature Precipitation Wind Pressure Humidity
    00:00 +2°C° 0 mm 5 mps 747 mmHg 75%
    01:00 +2°C° 0 mm 5 mps 746 mmHg 76%
    02:00 +1°C° 0 mm 5 mps 745 mmHg 76%
    03:00 +1°C° 0 mm 5 mps 745 mmHg 77%
    04:00 +2°C° 0.9 mm 6 mps 744 mmHg 80%
    05:00 +2°C° 0.9 mm 7 mps 744 mmHg 82%
    06:00 +1°C° 0.9 mm 8 mps 744 mmHg 84%
    07:00 +2°C° 1.9 mm 7 mps 743 mmHg 87%
    08:00 +2°C° 1.9 mm 6 mps 743 mmHg 89%
    09:00 +3°C° 1.9 mm 5 mps 743 mmHg 92%
    10:00 +3°C° 5.2 mm 5 mps 742 mmHg 93%
    11:00 +3°C° 5.2 mm 5 mps 742 mmHg 94%
    12:00 +3°C° 5.2 mm 5 mps 742 mmHg 94%
    13:00 +6°C° 0.2 mm 4 mps 741 mmHg 91%
    14:00 +9°C° 0.2 mm 3 mps 741 mmHg 88%
    15:00 +10°C° 0.2 mm 2 mps 741 mmHg 85%
    16:00 +10°C° 0 mm 2 mps 742 mmHg 87%
    17:00 +10°C° 0 mm 2 mps 742 mmHg 90%
    18:00 +11°C° 0 mm 1 mps 743 mmHg 92%
    19:00 +9°C° 0 mm 2 mps 743 mmHg 94%
    20:00 +8°C° 0 mm 2 mps 743 mmHg 95%
    21:00 +7°C° 0 mm 2 mps 744 mmHg 96%
    22:00 +6°C° 0 mm 2 mps 744 mmHg 97%
    23:00 +6°C° 0 mm 2 mps 744 mmHg 97%

    30 April, Tuesday

    Time Temperature Precipitation Wind Pressure Humidity
    00:00 +5°C° 0 mm 2 mps 744 mmHg 97%
    01:00 +5°C° 0 mm 2 mps 744 mmHg 97%
    02:00 +5°C° 0 mm 2 mps 744 mmHg 97%
    03:00 +6°C° 0 mm 2 mps 745 mmHg 96%
    04:00 +6°C° 0.4 mm 2 mps 745 mmHg 96%
    05:00 +5°C° 0.4 mm 3 mps 745 mmHg 95%
    06:00 +5°C° 0.4 mm 4 mps 745 mmHg 95%
    07:00 +5°C° 0.4 mm 4 mps 745 mmHg 95%
    08:00 +5°C° 0.4 mm 3 mps 745 mmHg 95%
    09:00 +7°C° 0.4 mm 3 mps 746 mmHg 94%
    10:00 +6°C° 1.1 mm 4 mps 746 mmHg 94%
    11:00 +6°C° 1.1 mm 4 mps 745 mmHg 94%
    12:00 +6°C° 1.1 mm 5 mps 745 mmHg 94%
    13:00 +6°C° 0.9 mm 5 mps 745 mmHg 94%
    14:00 +7°C° 0.9 mm 5 mps 744 mmHg 94%
    15:00 +7°C° 0.9 mm 5 mps 744 mmHg 95%
    16:00 +7°C° 1.2 mm 5 mps 744 mmHg 95%
    17:00 +7°C° 1.2 mm 5 mps 744 mmHg 95%
    18:00 +8°C° 1.2 mm 4 mps 743 mmHg 96%
    19:00 +8°C° 1.1 mm 5 mps 743 mmHg 96%
    20:00 +8°C° 1.1 mm 5 mps 743 mmHg 96%
    21:00 +8°C° 1.1 mm 6 mps 742 mmHg 96%
    22:00 +8°C° 4.2 mm 5 mps 741 mmHg 96%
    23:00 +8°C° 4.2 mm 5 mps 741 mmHg 96%

    1 May, Wednesday

    Time Temperature Precipitation Wind Pressure Humidity
    00:00 +9°C° 4.2 mm 5 mps 740 mmHg 96%
    01:00 +10°C° 3.3 mm 4 mps 739 mmHg 97%
    02:00 +11°C° 3.3 mm 4 mps 738 mmHg 97%
    03:00 +11°C° 3.3 mm 3 mps 737 mmHg 98%
    04:00 +12°C° 0.4 mm 2 mps 737 mmHg 98%
    05:00 +12°C° 0.4 mm 2 mps 737 mmHg 98%
    06:00 +12°C° 0.4 mm 1 mps 738 mmHg 98%
    07:00 +12°C° 0 mm 2 mps 738 mmHg 97%
    08:00 +12°C° 0 mm 2 mps 739 mmHg 96%
    09:00 +12°C° 0 mm 3 mps 740 mmHg 95%
    10:00 +12°C° 0.1 mm 3 mps 741 mmHg 94%
    11:00 +11°C° 0.1 mm 3 mps 741 mmHg 94%
    12:00 +11°C° 0.1 mm 3 mps 742 mmHg 93%
    13:00 +12°C° 0 mm 4 mps 743 mmHg 89%
    14:00 +13°C° 0 mm 4 mps 743 mmHg 86%
    15:00 +14°C° 0 mm 4 mps 744 mmHg 82%
    16:00 +13°C° 0 mm 4 mps 744 mmHg 83%
    17:00 +10°C° 0 mm 5 mps 745 mmHg 84%
    18:00 +9°C° 0 mm 5 mps 745 mmHg 84%
    19:00 +8°C° 0 mm 4 mps 746 mmHg 86%
    20:00 +7°C° 0 mm 4 mps 746 mmHg 88%
    21:00 +7°C° 0 mm 3 mps 746 mmHg 90%
    22:00 +6°C° 0 mm 4 mps 746 mmHg 90%
    23:00 +6°C° 0 mm 4 mps 746 mmHg 90%
    Show more